La Crosse, VA

12:35 PM EST on February 08, 2016 (GMT -0500)
Mecklenburg-Brunswick Regional

Weather History for KAVC - October, 2012

Change the Weather History Date:

Thursday, October 11, 2012

  Actual Average (KEMV) Record (KEMV)
Temperature  
Mean Temperature 51 °F -  
Max Temperature 60 °F 72 °F 86 °F (1990)
Min Temperature 42 °F 47 °F 35 °F (1987)
Degree Days  
Heating Degree Days 14    
Growing Degree Days 1 (Base 50)    
Moisture  
Dew Point 44 °F    
Average Humidity 79    
Maximum Humidity 100    
Minimum Humidity 51    
Precipitation  
Precipitation 0.00 in - - ()
Sea Level Pressure  
Sea Level Pressure 30.28 in    
Wind  
Wind Speed 1 mph (NNE)    
Max Wind Speed 7 mph    
Max Gust Speed -    
Visibility 10 miles    
Events      
Averages and records for this station are not official NWS values.
T = Trace of Precipitation, MM = Missing Value Source: NWS Daily Summary

Daily Weather History Graph

Daily Weather History Graph

Search for Another Location

Airport or City:

Trip Planner

Search our weather history database for the weather conditions in past years. The results will help you decide how hot, cold, wet, or windy it might be!

Date:

Astronomy

Oct. 11, 2012 Rise Set
Actual Time 7:16 AM EDT 6:40 PM EDT
Civil Twilight 6:50 AM EDT 7:06 PM EDT
Nautical Twilight 6:20 AM EDT 7:36 PM EDT
Astronomical Twilight 5:50 AM EDT 8:06 PM EDT
Moon 2:59 AM EDT (10/11) 4:10 PM EDT (10/11)
Length of Visible Light 12h 16m
Length of Day
11h 24m
Waning Crescent, 18% of the Moon is Illuminated
Oct 11
Waning Crescent
Oct 15
New
Oct 21
First Quarter
Oct 29
Full
Nov 6
Last Quarter

Hourly Weather History & Observations

Time (EDT) Temp. Windchill Dew Point Humidity Pressure Visibility Wind Dir Wind Speed Gust Speed Precip Events Conditions
1:17 AM 51.8 °F - 46.4 °F 82% 30.17 in 10.0 mi Calm Calm - N/A   Clear
2:01 AM 50.0 °F - 46.4 °F 87% 30.18 in 10.0 mi NW 3.5 mph - N/A   Clear
2:43 AM 48.2 °F - 44.6 °F 87% 30.19 in 10.0 mi Calm Calm - N/A   Clear
3:23 AM 46.4 °F - 44.6 °F 93% 30.21 in 10.0 mi Calm Calm - N/A   Clear
3:35 AM 46.4 °F - 44.6 °F 93% 30.21 in 10.0 mi Calm Calm - N/A   Clear
3:55 AM 46.4 °F - 42.8 °F 87% 30.21 in 10.0 mi Calm Calm - N/A   Clear
4:20 AM 44.6 °F - 42.8 °F 93% 30.22 in 10.0 mi Calm Calm - N/A   Clear
4:35 AM 44.6 °F - 42.8 °F 93% 30.23 in 10.0 mi Calm Calm - N/A   Clear
4:43 AM 44.6 °F - 42.8 °F 93% 30.24 in 10.0 mi Calm Calm - N/A   Clear
5:17 AM 44.6 °F - 42.8 °F 93% 30.25 in 10.0 mi Calm Calm - N/A   Clear
6:41 AM 44.6 °F - 42.8 °F 93% 30.28 in 10.0 mi Calm Calm - N/A   Clear
6:57 AM 42.8 °F - 42.8 °F 100% 30.29 in 10.0 mi Calm Calm - N/A   Clear
8:41 AM 46.4 °F 44.3 °F 44.6 °F 93% 30.33 in 10.0 mi North 4.6 mph - N/A   Clear
9:21 AM 51.8 °F - 42.8 °F 71% 30.34 in 10.0 mi NNE 4.6 mph - N/A   Clear
9:55 AM 53.6 °F - 41.0 °F 62% 30.35 in 10.0 mi NNE 3.5 mph - N/A   Clear
9:59 AM 53.6 °F - 42.8 °F 67% 30.35 in 10.0 mi NNE 5.8 mph - N/A   Clear
10:57 AM 55.4 °F - 41.0 °F 58% 30.36 in 10.0 mi North 3.5 mph - N/A   Clear
11:17 AM 55.4 °F - 39.2 °F 54% 30.37 in 10.0 mi NNE 6.9 mph - N/A   Clear
11:37 AM 57.2 °F - 39.2 °F 51% 30.36 in 10.0 mi NNE 3.5 mph - N/A   Clear
12:19 PM 59.0 °F - 42.8 °F 55% 30.35 in 10.0 mi SSE 5.8 mph - N/A   Clear
12:40 PM 59.0 °F - 42.8 °F 55% 30.34 in 10.0 mi Calm Calm - N/A   Clear
12:57 PM 60.8 °F - 42.8 °F 52% 30.33 in 10.0 mi Calm Calm - N/A   Clear
1:55 PM 60.8 °F - 42.8 °F 52% 30.30 in 10.0 mi Calm Calm - N/A   Clear
6:16 PM 59.0 °F - 50.0 °F 72% 30.28 in 10.0 mi Calm Calm - N/A   Clear
6:35 PM 55.4 °F - 50.0 °F 82% 30.28 in 10.0 mi Calm Calm - N/A   Clear
9:55 PM 44.6 °F - 44.6 °F 100% 30.29 in 10.0 mi Calm Calm - N/A   Clear
11:15 PM 44.6 °F - 44.6 °F 100% 30.28 in 10.0 mi Calm Calm - N/A   Clear
11:16 PM 42.8 °F - 42.8 °F 100% 30.28 in 10.0 mi Calm Calm - N/A   Clear